PRIVATE WETTERSTATION BILLIGHEIM-ALLFELD                       ZURCK
Wetterdaten: Donnerstag, 30.11.2017
Datum Zeit Temp. A. Temp. A. min Temp. A. max Feuchte A. Luftdruck Regen Wind Richtung Richtung Sonnenschein ET Solar Taupunkt Windchill Windben Empfang
30.11.2017 00:00 -1,0 C -1,3 C -1,0 C 91 % 1006,1 hPa 0,0 l/m 0,0 km/h (0 Bft) SW 225 0 min 0,000 mm 0 W/m -2,3 C -1,0 C 3,2 km/h (1 Bft) 100 %
30.11.2017 00:10 -0,8 C -1,0 C -0,8 C 91 % 1006,1 hPa 0,0 l/m 0,0 km/h (0 Bft) SW 225 0 min 0,000 mm 0 W/m -2,1 C -0,8 C 3,2 km/h (1 Bft) 100 %
30.11.2017 00:20 -0,7 C -0,8 C -0,7 C 91 % 1006,0 hPa 0,0 l/m 1,6 km/h (1 Bft) SW 225 0 min 0,000 mm 0 W/m -2,0 C -0,7 C 4,8 km/h (1 Bft) 100 %
30.11.2017 00:30 -0,7 C -0,7 C -0,7 C 91 % 1005,9 hPa 0,0 l/m 1,6 km/h (1 Bft) S-SW 202 0 min 0,000 mm 0 W/m -2,0 C -0,7 C 4,8 km/h (1 Bft) 100 %
30.11.2017 00:40 -0,5 C -0,7 C -0,5 C 91 % 1005,8 hPa 0,0 l/m 3,2 km/h (1 Bft) S-SW 202 0 min 0,000 mm 0 W/m -1,8 C -0,5 C 4,8 km/h (1 Bft) 100 %
30.11.2017 00:50 -0,4 C -0,5 C -0,4 C 91 % 1005,7 hPa 0,0 l/m 3,2 km/h (1 Bft) S 180 0 min 0,000 mm 0 W/m -1,7 C -0,4 C 8,0 km/h (2 Bft) 91 %
30.11.2017 01:00 -0,4 C -0,4 C -0,4 C 91 % 1005,6 hPa 0,0 l/m 3,2 km/h (1 Bft) S 180 0 min 0,000 mm 0 W/m -1,7 C -0,4 C 6,4 km/h (2 Bft) 100 %
30.11.2017 01:10 -0,3 C -0,4 C -0,3 C 91 % 1005,6 hPa 0,0 l/m 1,6 km/h (1 Bft) S 180 0 min 0,000 mm 0 W/m -1,6 C -0,3 C 4,8 km/h (1 Bft) 100 %
30.11.2017 01:20 -0,3 C -0,3 C -0,3 C 91 % 1005,5 hPa 0,0 l/m 1,6 km/h (1 Bft) S-SO 157 0 min 0,000 mm 0 W/m -1,6 C -0,3 C 6,4 km/h (2 Bft) 99 %
30.11.2017 01:30 -0,3 C -0,3 C -0,3 C 91 % 1005,4 hPa 0,0 l/m 0,0 km/h (0 Bft) S-SO 157 0 min 0,000 mm 0 W/m -1,6 C -0,3 C 8,0 km/h (2 Bft) 100 %
30.11.2017 01:40 -0,3 C -0,4 C -0,3 C 91 % 1005,4 hPa 0,0 l/m 3,2 km/h (1 Bft) S-SO 157 0 min 0,000 mm 0 W/m -1,6 C -0,3 C 8,0 km/h (2 Bft) 100 %
30.11.2017 01:50 -0,4 C -0,4 C -0,3 C 91 % 1005,4 hPa 0,0 l/m 3,2 km/h (1 Bft) S-SO 157 0 min 0,000 mm 0 W/m -1,7 C -0,4 C 6,4 km/h (2 Bft) 100 %
30.11.2017 02:00 -0,4 C -0,4 C -0,4 C 91 % 1005,3 hPa 0,0 l/m 3,2 km/h (1 Bft) S 180 0 min 0,000 mm 0 W/m -1,7 C -0,4 C 8,0 km/h (2 Bft) 100 %
30.11.2017 02:10 -0,4 C -0,4 C -0,4 C 91 % 1005,3 hPa 0,0 l/m 3,2 km/h (1 Bft) S 180 0 min 0,000 mm 0 W/m -1,7 C -0,4 C 6,4 km/h (2 Bft) 100 %
30.11.2017 02:20 -0,5 C -0,5 C -0,4 C 91 % 1005,2 hPa 0,0 l/m 4,8 km/h (1 Bft) S-SO 157 0 min 0,000 mm 0 W/m -1,8 C -0,5 C 9,7 km/h (2 Bft) 100 %
30.11.2017 02:30 -0,5 C -0,5 C -0,4 C 91 % 1005,2 hPa 0,0 l/m 4,8 km/h (1 Bft) S-SO 157 0 min 0,000 mm 0 W/m -1,8 C -0,5 C 9,7 km/h (2 Bft) 100 %
30.11.2017 02:40 -0,5 C -0,5 C -0,4 C 91 % 1005,1 hPa 0,0 l/m 3,2 km/h (1 Bft) S-SO 157 0 min 0,000 mm 0 W/m -1,8 C -0,5 C 8,0 km/h (2 Bft) 100 %
30.11.2017 02:50 -0,6 C -0,6 C -0,5 C 91 % 1005,2 hPa 0,0 l/m 4,8 km/h (1 Bft) S 180 0 min 0,000 mm 0 W/m -1,9 C -0,6 C 9,7 km/h (2 Bft) 100 %
30.11.2017 03:00 -0,6 C -0,6 C -0,6 C 91 % 1005,1 hPa 0,0 l/m 3,2 km/h (1 Bft) S 180 0 min 0,000 mm 0 W/m -1,9 C -0,6 C 8,0 km/h (2 Bft) 100 %
30.11.2017 03:10 -0,6 C -0,6 C -0,6 C 91 % 1005,1 hPa 0,0 l/m 3,2 km/h (1 Bft) S 180 0 min 0,000 mm 0 W/m -1,9 C -0,6 C 8,0 km/h (2 Bft) 100 %
30.11.2017 03:20 -0,6 C -0,6 C -0,6 C 91 % 1005,1 hPa 0,0 l/m 3,2 km/h (1 Bft) S 180 0 min 0,000 mm 0 W/m -1,9 C -0,6 C 6,4 km/h (2 Bft) 100 %
30.11.2017 03:30 -0,5 C -0,6 C -0,5 C 91 % 1005,0 hPa 0,0 l/m 3,2 km/h (1 Bft) S 180 0 min 0,000 mm 0 W/m -1,8 C -0,5 C 6,4 km/h (2 Bft) 90 %
30.11.2017 03:40 -0,5 C -0,5 C -0,5 C 91 % 1005,0 hPa 0,0 l/m 3,2 km/h (1 Bft) S-SO 157 0 min 0,000 mm 0 W/m -1,8 C -0,5 C 6,4 km/h (2 Bft) 99 %
30.11.2017 03:50 -0,4 C -0,5 C -0,4 C 91 % 1004,9 hPa 0,0 l/m 3,2 km/h (1 Bft) S-SO 157 0 min 0,000 mm 0 W/m -1,7 C -0,4 C 8,0 km/h (2 Bft) 100 %
30.11.2017 04:00 -0,4 C -0,4 C -0,4 C 91 % 1004,9 hPa 0,0 l/m 3,2 km/h (1 Bft) S 180 0 min 0,000 mm 0 W/m -1,7 C -0,4 C 6,4 km/h (2 Bft) 100 %
30.11.2017 04:10 -0,4 C -0,4 C -0,4 C 91 % 1004,6 hPa 0,1 l/m 0,0 km/h (0 Bft) S 180 0 min 0,000 mm 0 W/m -1,7 C -0,4 C 3,2 km/h (1 Bft) 100 %
30.11.2017 04:20 -0,3 C -0,4 C -0,3 C 91 % 1004,5 hPa 0,0 l/m 0,0 km/h (0 Bft) N 0 0 min 0,000 mm 0 W/m -1,6 C -0,3 C 0,0 km/h (0 Bft) 100 %
30.11.2017 04:30 -0,3 C -0,4 C -0,3 C 91 % 1004,5 hPa 0,2 l/m 0,0 km/h (0 Bft) S 180 0 min 0,000 mm 0 W/m -1,6 C -0,3 C 1,6 km/h (1 Bft) 100 %
30.11.2017 04:40 -0,2 C -0,3 C -0,2 C 91 % 1004,6 hPa 0,0 l/m 1,6 km/h (1 Bft) S 180 0 min 0,000 mm 0 W/m -1,5 C -0,2 C 4,8 km/h (1 Bft) 100 %
30.11.2017 04:50 -0,2 C -0,2 C -0,2 C 91 % 1004,5 hPa 0,2 l/m 0,0 km/h (0 Bft) N 0 0 min 0,000 mm 0 W/m -1,5 C -0,2 C 0,0 km/h (0 Bft) 100 %
30.11.2017 05:00 -0,1 C -0,2 C -0,1 C 91 % 1004,5 hPa 0,0 l/m 0,0 km/h (0 Bft) N 0 0 min 0,000 mm 0 W/m -1,4 C -0,1 C 0,0 km/h (0 Bft) 100 %
30.11.2017 05:10 -0,1 C -0,1 C -0,1 C 91 % 1004,4 hPa 0,2 l/m 0,0 km/h (0 Bft) S-SO 157 0 min 0,000 mm 0 W/m -1,4 C -0,1 C 3,2 km/h (1 Bft) 100 %
30.11.2017 05:20 -0,1 C -0,1 C -0,1 C 91 % 1004,4 hPa 0,0 l/m 0,0 km/h (0 Bft) N 0 0 min 0,000 mm 0 W/m -1,4 C -0,1 C 0,0 km/h (0 Bft) 100 %
30.11.2017 05:30 -0,1 C -0,2 C -0,1 C 91 % 1004,4 hPa 0,2 l/m 0,0 km/h (0 Bft) N 0 0 min 0,000 mm 0 W/m -1,4 C -0,1 C 0,0 km/h (0 Bft) 100 %
30.11.2017 05:40 -0,2 C -0,2 C -0,1 C 91 % 1004,3 hPa 0,0 l/m 0,0 km/h (0 Bft) N 0 0 min 0,000 mm 0 W/m -1,5 C -0,2 C 0,0 km/h (0 Bft) 100 %
30.11.2017 05:50 -0,2 C -0,2 C -0,2 C 91 % 1004,3 hPa 0,2 l/m 0,0 km/h (0 Bft) N 0 0 min 0,000 mm 0 W/m -1,5 C -0,2 C 0,0 km/h (0 Bft) 100 %
30.11.2017 06:00 -0,2 C -0,2 C -0,2 C 91 % 1004,4 hPa 0,0 l/m 0,0 km/h (0 Bft) N 0 0 min 0,000 mm 0 W/m -1,5 C -0,2 C 0,0 km/h (0 Bft) 100 %
30.11.2017 06:10 -0,3 C -0,3 C -0,2 C 91 % 1004,4 hPa 0,1 l/m 0,0 km/h (0 Bft) N 0 0 min 0,000 mm 0 W/m -1,6 C -0,3 C 0,0 km/h (0 Bft) 100 %
30.11.2017 06:20 -0,3 C -0,3 C -0,2 C 91 % 1004,5 hPa 0,0 l/m 0,0 km/h (0 Bft) N 0 0 min 0,000 mm 0 W/m -1,6 C -0,3 C 0,0 km/h (0 Bft) 99 %
30.11.2017 06:30 -0,3 C -0,3 C -0,2 C 91 % 1004,4 hPa 0,0 l/m 0,0 km/h (0 Bft) N 0 0 min 0,000 mm 0 W/m -1,6 C -0,3 C 0,0 km/h (0 Bft) 100 %
30.11.2017 06:40 -0,3 C -0,3 C -0,3 C 91 % 1004,6 hPa 0,0 l/m 0,0 km/h (0 Bft) N 0 0 min 0,000 mm 0 W/m -1,6 C -0,3 C 0,0 km/h (0 Bft) 100 %
30.11.2017 06:50 -0,2 C -0,3 C -0,2 C 91 % 1004,5 hPa 0,0 l/m 0,0 km/h (0 Bft) N 0 0 min 0,000 mm 0 W/m -1,5 C -0,2 C 0,0 km/h (0 Bft) 100 %
30.11.2017 07:00 -0,2 C -0,2 C -0,2 C 91 % 1004,5 hPa 0,0 l/m 0,0 km/h (0 Bft) N 0 0 min 0,000 mm 0 W/m -1,5 C -0,2 C 0,0 km/h (0 Bft) 100 %
30.11.2017 07:10 -0,2 C -0,2 C -0,2 C 91 % 1004,3 hPa 0,0 l/m 0,0 km/h (0 Bft) N 0 0 min 0,000 mm 0 W/m -1,5 C -0,2 C 0,0 km/h (0 Bft) 100 %
30.11.2017 07:20 -0,2 C -0,2 C -0,2 C 91 % 1004,4 hPa 0,0 l/m 0,0 km/h (0 Bft) N 0 0 min 0,000 mm 0 W/m -1,5 C -0,2 C 0,0 km/h (0 Bft) 100 %
30.11.2017 07:30 -0,2 C -0,2 C -0,2 C 91 % 1004,4 hPa 0,0 l/m 0,0 km/h (0 Bft) N 0 0 min 0,000 mm 0 W/m -1,5 C -0,2 C 0,0 km/h (0 Bft) 100 %
30.11.2017 07:40 -0,2 C -0,3 C -0,2 C 91 % 1004,5 hPa 0,0 l/m 0,0 km/h (0 Bft) N 0 0 min 0,000 mm 0 W/m -1,5 C -0,2 C 0,0 km/h (0 Bft) 100 %
30.11.2017 07:50 -0,2 C -0,2 C -0,2 C 91 % 1004,6 hPa 0,0 l/m 0,0 km/h (0 Bft) N 0 0 min 0,000 mm 0 W/m -1,5 C -0,2 C 0,0 km/h (0 Bft) 91 %
30.11.2017 08:00 -0,2 C -0,2 C -0,2 C 91 % 1004,5 hPa 0,0 l/m 0,0 km/h (0 Bft) N 0 0 min 0,000 mm 0 W/m -1,5 C -0,2 C 0,0 km/h (0 Bft) 100 %
30.11.2017 08:10 -0,2 C -0,2 C -0,2 C 91 % 1004,6 hPa 0,0 l/m 0,0 km/h (0 Bft) N 0 0 min 0,000 mm 0 W/m -1,5 C -0,2 C 0,0 km/h (0 Bft) 100 %
30.11.2017 08:20 -0,2 C -0,2 C -0,2 C 91 % 1004,7 hPa 0,0 l/m 0,0 km/h (0 Bft) N 0 0 min 0,000 mm 0 W/m -1,5 C -0,2 C 0,0 km/h (0 Bft) 100 %
30.11.2017 08:30 -0,2 C -0,2 C -0,2 C 91 % 1004,9 hPa 0,0 l/m 0,0 km/h (0 Bft) N 0 0 min 0,000 mm 0 W/m -1,5 C -0,2 C 0,0 km/h (0 Bft) 100 %
30.11.2017 08:40 -0,3 C -0,3 C -0,2 C 91 % 1005,1 hPa 0,0 l/m 0,0 km/h (0 Bft) N 0 0 min 0,000 mm 5 W/m -1,6 C -0,3 C 0,0 km/h (0 Bft) 100 %
30.11.2017 08:50 -0,3 C -0,3 C -0,3 C 91 % 1005,3 hPa 0,0 l/m 0,0 km/h (0 Bft) N 0 0 min 0,000 mm 7 W/m -1,6 C -0,3 C 0,0 km/h (0 Bft) 100 %
30.11.2017 09:00 -0,3 C -0,3 C -0,3 C 91 % 1005,4 hPa 0,0 l/m 0,0 km/h (0 Bft) N 0 0 min 0,000 mm 9 W/m -1,6 C -0,3 C 0,0 km/h (0 Bft) 98 %
30.11.2017 09:10 -0,2 C -0,3 C -0,2 C 91 % 1005,4 hPa 0,0 l/m 0,0 km/h (0 Bft) N 0 0 min 0,000 mm 12 W/m -1,5 C -0,2 C 0,0 km/h (0 Bft) 100 %
30.11.2017 09:20 -0,2 C -0,3 C -0,2 C 91 % 1005,4 hPa 0,0 l/m 0,0 km/h (0 Bft) N 0 0 min 0,000 mm 16 W/m -1,5 C -0,2 C 0,0 km/h (0 Bft) 89 %
30.11.2017 09:30 -0,2 C -0,2 C -0,2 C 91 % 1005,3 hPa 0,0 l/m 0,0 km/h (0 Bft) N 0 0 min 0,000 mm 19 W/m -1,5 C -0,2 C 0,0 km/h (0 Bft) 100 %
30.11.2017 09:40 -0,2 C -0,2 C -0,2 C 91 % 1005,3 hPa 0,0 l/m 0,0 km/h (0 Bft) N 0 0 min 0,000 mm 21 W/m -1,5 C -0,2 C 0,0 km/h (0 Bft) 100 %
30.11.2017 09:50 -0,2 C -0,2 C -0,2 C 91 % 1005,4 hPa 0,0 l/m 0,0 km/h (0 Bft) N 0 0 min 0,000 mm 21 W/m -1,5 C -0,2 C 0,0 km/h (0 Bft) 100 %
30.11.2017 10:00 -0,2 C -0,2 C -0,1 C 91 % 1005,5 hPa 0,0 l/m 0,0 km/h (0 Bft) N 0 0 min 0,000 mm 23 W/m -1,5 C -0,2 C 0,0 km/h (0 Bft) 100 %
30.11.2017 10:10 -0,2 C -0,2 C -0,1 C 91 % 1005,6 hPa 0,0 l/m 0,0 km/h (0 Bft) N 0 0 min 0,000 mm 21 W/m -1,5 C -0,2 C 0,0 km/h (0 Bft) 100 %
30.11.2017 10:20 -0,1 C -0,2 C -0,1 C 91 % 1005,7 hPa 0,0 l/m 0,0 km/h (0 Bft) N 0 0 min 0,000 mm 23 W/m -1,4 C -0,1 C 0,0 km/h (0 Bft) 100 %
30.11.2017 10:30 0,0 C -0,1 C 0,0 C 91 % 1005,6 hPa 0,0 l/m 0,0 km/h (0 Bft) N 0 0 min 0,000 mm 19 W/m -1,3 C 0,0 C 0,0 km/h (0 Bft) 100 %
30.11.2017 10:40 0,0 C 0,0 C 0,1 C 91 % 1005,5 hPa 0,0 l/m 0,0 km/h (0 Bft) N 0 0 min 0,000 mm 12 W/m -1,3 C 0,0 C 0,0 km/h (0 Bft) 89 %
30.11.2017 10:50 0,1 C 0,0 C 0,1 C 91 % 1005,5 hPa 0,0 l/m 0,0 km/h (0 Bft) N 0 0 min 0,000 mm 11 W/m -1,2 C 0,1 C 0,0 km/h (0 Bft) 100 %
30.11.2017 11:00 0,1 C 0,1 C 0,1 C 91 % 1005,6 hPa 0,0 l/m 0,0 km/h (0 Bft) N 0 0 min 0,000 mm 12 W/m -1,2 C 0,1 C 0,0 km/h (0 Bft) 100 %
30.11.2017 11:10 0,1 C 0,1 C 0,1 C 91 % 1005,5 hPa 0,0 l/m 1,6 km/h (1 Bft) SW 225 0 min 0,000 mm 26 W/m -1,2 C 0,1 C 8,0 km/h (2 Bft) 100 %
30.11.2017 11:20 0,2 C 0,1 C 0,2 C 91 % 1005,5 hPa 0,0 l/m 0,0 km/h (0 Bft) SW 225 0 min 0,000 mm 44 W/m -1,1 C 0,2 C 6,4 km/h (2 Bft) 100 %
30.11.2017 11:30 0,2 C 0,2 C 0,2 C 91 % 1005,5 hPa 0,0 l/m 3,2 km/h (1 Bft) SW 225 0 min 0,000 mm 25 W/m -1,1 C 0,2 C 9,7 km/h (2 Bft) 100 %
30.11.2017 11:40 0,3 C 0,2 C 0,3 C 91 % 1005,5 hPa 0,0 l/m 3,2 km/h (1 Bft) SW 225 0 min 0,000 mm 56 W/m -1,0 C 0,3 C 9,7 km/h (2 Bft) 100 %
30.11.2017 11:50 0,4 C 0,3 C 0,4 C 91 % 1005,4 hPa 0,0 l/m 3,2 km/h (1 Bft) SW 225 0 min 0,000 mm 65 W/m -0,9 C 0,4 C 9,7 km/h (2 Bft) 100 %
30.11.2017 12:00 0,4 C 0,4 C 0,4 C 91 % 1005,4 hPa 0,0 l/m 3,2 km/h (1 Bft) SW 225 0 min 0,025 mm 62 W/m -0,9 C 0,4 C 8,0 km/h (2 Bft) 100 %
30.11.2017 12:10 0,4 C 0,4 C 0,5 C 91 % 1005,3 hPa 0,0 l/m 3,2 km/h (1 Bft) SW 225 0 min 0,000 mm 56 W/m -0,9 C 0,4 C 9,7 km/h (2 Bft) 89 %
30.11.2017 12:20 0,4 C 0,4 C 0,4 C 91 % 1005,4 hPa 0,0 l/m 4,8 km/h (1 Bft) SW 225 0 min 0,000 mm 67 W/m -0,9 C 0,4 C 14,5 km/h (3 Bft) 100 %
30.11.2017 12:30 0,5 C 0,4 C 0,5 C 91 % 1005,2 hPa 0,0 l/m 6,4 km/h (2 Bft) S-SW 202 0 min 0,000 mm 81 W/m -0,8 C 0,5 C 9,7 km/h (2 Bft) 100 %
30.11.2017 12:40 0,5 C 0,5 C 0,5 C 91 % 1005,1 hPa 0,0 l/m 4,8 km/h (1 Bft) S-SW 202 0 min 0,000 mm 56 W/m -0,8 C 0,5 C 8,0 km/h (2 Bft) 100 %
30.11.2017 12:50 0,5 C 0,5 C 0,5 C 91 % 1005,2 hPa 0,0 l/m 0,0 km/h (0 Bft) S-SW 202 0 min 0,000 mm 32 W/m -0,8 C 0,5 C 4,8 km/h (1 Bft) 100 %
30.11.2017 13:00 0,5 C 0,4 C 0,5 C 91 % 1005,1 hPa 0,0 l/m 0,0 km/h (0 Bft) S-SW 202 0 min 0,025 mm 63 W/m -0,8 C 0,5 C 1,6 km/h (1 Bft) 100 %
30.11.2017 13:10 0,6 C 0,5 C 0,6 C 91 % 1005,1 hPa 0,0 l/m 1,6 km/h (1 Bft) S-SW 202 0 min 0,000 mm 97 W/m -0,7 C 0,6 C 8,0 km/h (2 Bft) 100 %
30.11.2017 13:20 0,7 C 0,6 C 0,7 C 91 % 1005,1 hPa 0,0 l/m 4,8 km/h (1 Bft) SW 225 0 min 0,000 mm 88 W/m -0,6 C 0,7 C 11,3 km/h (2 Bft) 100 %
30.11.2017 13:30 0,8 C 0,7 C 0,8 C 91 % 1005,1 hPa 0,0 l/m 3,2 km/h (1 Bft) SW 225 0 min 0,000 mm 88 W/m -0,5 C 0,8 C 14,5 km/h (3 Bft) 100 %
30.11.2017 13:40 0,9 C 0,8 C 0,9 C 91 % 1005,1 hPa 0,0 l/m 1,6 km/h (1 Bft) SW 225 0 min 0,000 mm 65 W/m -0,4 C 0,9 C 6,4 km/h (2 Bft) 90 %
30.11.2017 13:50 0,9 C 0,9 C 0,9 C 91 % 1005,0 hPa 0,0 l/m 4,8 km/h (1 Bft) SW 225 0 min 0,000 mm 49 W/m -0,4 C 0,9 C 11,3 km/h (2 Bft) 100 %
30.11.2017 14:00 0,9 C 0,9 C 1,0 C 91 % 1005,1 hPa 0,0 l/m 4,8 km/h (1 Bft) SW 225 0 min 0,025 mm 49 W/m -0,4 C 0,9 C 9,7 km/h (2 Bft) 100 %
30.11.2017 14:10 0,9 C 0,8 C 1,0 C 91 % 1005,0 hPa 0,0 l/m 4,8 km/h (1 Bft) SW 225 0 min 0,000 mm 39 W/m -0,4 C 0,9 C 9,7 km/h (2 Bft) 100 %
30.11.2017 14:20 0,8 C 0,8 C 0,8 C 91 % 1005,0 hPa 0,0 l/m 0,0 km/h (0 Bft) W-SW 247 0 min 0,000 mm 49 W/m -0,5 C 0,8 C 6,4 km/h (2 Bft) 100 %
30.11.2017 14:30 0,8 C 0,8 C 0,9 C 91 % 1005,0 hPa 0,1 l/m 1,6 km/h (1 Bft) SW 225 0 min 0,000 mm 47 W/m -0,5 C 0,8 C 6,4 km/h (2 Bft) 100 %
30.11.2017 14:40 0,7 C 0,7 C 0,8 C 91 % 1005,0 hPa 0,0 l/m 1,6 km/h (1 Bft) W-SW 247 0 min 0,000 mm 23 W/m -0,6 C 0,7 C 4,8 km/h (1 Bft) 100 %
30.11.2017 14:50 0,6 C 0,6 C 0,7 C 91 % 1005,0 hPa 0,0 l/m 0,0 km/h (0 Bft) N 0 0 min 0,000 mm 21 W/m -0,7 C 0,6 C 0,0 km/h (0 Bft) 100 %
30.11.2017 15:00 0,6 C 0,6 C 0,6 C 91 % 1005,0 hPa 0,0 l/m 1,6 km/h (1 Bft) SW 225 0 min 0,000 mm 30 W/m -0,7 C 0,6 C 4,8 km/h (1 Bft) 100 %
30.11.2017 15:10 0,6 C 0,6 C 0,6 C 91 % 1005,1 hPa 0,0 l/m 3,2 km/h (1 Bft) SW 225 0 min 0,000 mm 28 W/m -0,7 C 0,6 C 6,4 km/h (2 Bft) 100 %
30.11.2017 15:20 0,6 C 0,6 C 0,6 C 91 % 1005,2 hPa 0,0 l/m 3,2 km/h (1 Bft) S-SW 202 0 min 0,000 mm 23 W/m -0,7 C 0,6 C 8,0 km/h (2 Bft) 99 %
30.11.2017 15:30 0,6 C 0,6 C 0,6 C 91 % 1005,1 hPa 0,0 l/m 3,2 km/h (1 Bft) S-SW 202 0 min 0,000 mm 23 W/m -0,7 C 0,6 C 8,0 km/h (2 Bft) 98 %
30.11.2017 15:40 0,6 C 0,6 C 0,7 C 91 % 1005,1 hPa 0,0 l/m 1,6 km/h (1 Bft) S-SW 202 0 min 0,000 mm 23 W/m -0,7 C 0,6 C 6,4 km/h (2 Bft) 98 %
30.11.2017 15:50 0,7 C 0,6 C 0,7 C 91 % 1005,2 hPa 0,0 l/m 0,0 km/h (0 Bft) S-SW 202 0 min 0,000 mm 12 W/m -0,6 C 0,7 C 6,4 km/h (2 Bft) 97 %
30.11.2017 16:00 0,7 C 0,7 C 0,7 C 91 % 1005,3 hPa 0,0 l/m 1,6 km/h (1 Bft) S 180 0 min 0,000 mm 7 W/m -0,6 C 0,7 C 6,4 km/h (2 Bft) 97 %
30.11.2017 16:10 0,7 C 0,7 C 0,7 C 91 % 1005,2 hPa 0,0 l/m 0,0 km/h (0 Bft) S 180 0 min 0,000 mm 0 W/m -0,6 C 0,7 C 4,8 km/h (1 Bft) 97 %
30.11.2017 16:20 0,8 C 0,7 C 0,8 C 91 % 1005,2 hPa 0,1 l/m 1,6 km/h (1 Bft) S 180 0 min 0,000 mm 0 W/m -0,5 C 0,8 C 6,4 km/h (2 Bft) 97 %
30.11.2017 16:30 0,8 C 0,8 C 0,8 C 91 % 1005,2 hPa 0,0 l/m 3,2 km/h (1 Bft) S 180 0 min 0,000 mm 0 W/m -0,5 C 0,8 C 9,7 km/h (2 Bft) 98 %
30.11.2017 16:40 0,8 C 0,8 C 0,8 C 91 % 1005,2 hPa 0,0 l/m 1,6 km/h (1 Bft) S 180 0 min 0,000 mm 0 W/m -0,5 C 0,8 C 4,8 km/h (1 Bft) 97 %
30.11.2017 16:50 0,9 C 0,8 C 0,9 C 91 % 1005,2 hPa 0,0 l/m 1,6 km/h (1 Bft) S 180 0 min 0,000 mm 0 W/m -0,4 C 0,9 C 8,0 km/h (2 Bft) 87 %
30.11.2017 17:00 0,9 C 0,9 C 0,9 C 91 % 1005,3 hPa 0,0 l/m 3,2 km/h (1 Bft) S 180 0 min 0,000 mm 0 W/m -0,4 C 0,9 C 8,0 km/h (2 Bft) 98 %
30.11.2017 17:10 1,0 C 0,9 C 1,0 C 91 % 1005,3 hPa 0,0 l/m 1,6 km/h (1 Bft) S-SW 202 0 min 0,000 mm 0 W/m -0,3 C 1,0 C 6,4 km/h (2 Bft) 97 %
30.11.2017 17:20 0,9 C 0,9 C 1,0 C 91 % 1005,3 hPa 0,1 l/m 3,2 km/h (1 Bft) S-SW 202 0 min 0,000 mm 0 W/m -0,4 C 0,9 C 9,7 km/h (2 Bft) 97 %
30.11.2017 17:30 0,6 C 0,6 C 0,9 C 91 % 1005,3 hPa 0,0 l/m 1,6 km/h (1 Bft) S-SW 202 0 min 0,000 mm 0 W/m -0,7 C 0,6 C 8,0 km/h (2 Bft) 97 %
30.11.2017 17:40 0,4 C 0,4 C 0,6 C 91 % 1005,3 hPa 0,2 l/m 0,0 km/h (0 Bft) S-SW 202 0 min 0,000 mm 0 W/m -0,9 C 0,4 C 3,2 km/h (1 Bft) 97 %
30.11.2017 17:50 0,3 C 0,3 C 0,4 C 91 % 1005,3 hPa 0,0 l/m 0,0 km/h (0 Bft) N 0 0 min 0,000 mm 0 W/m -1,0 C 0,3 C 0,0 km/h (0 Bft) 97 %
30.11.2017 18:10 0,1 C 0,1 C 0,4 C 91 % 1005,5 hPa 0,2 l/m 3,9 km/h (1 Bft) S-SO 168 0 min 0,001 mm 0 W/m -1,2 C 0,1 C 8,0 km/h (2 Bft) 100 %
30.11.2017 18:20 0,1 C 0,0 C 0,1 C 91 % 1005,5 hPa 0,0 l/m 3,9 km/h (1 Bft) S 183 0 min 0,000 mm 0 W/m -1,2 C 0,1 C 11,3 km/h (2 Bft) 100 %
30.11.2017 18:30 0,1 C 0,0 C 0,1 C 91 % 1005,5 hPa 0,2 l/m 4,5 km/h (1 Bft) S 184 0 min 0,000 mm 0 W/m -1,2 C 0,1 C 11,3 km/h (2 Bft) 100 %
30.11.2017 18:40 0,1 C 0,0 C 0,1 C 91 % 1005,6 hPa 0,0 l/m 4,8 km/h (1 Bft) S 185 0 min 0,000 mm 0 W/m -1,2 C 0,1 C 11,3 km/h (2 Bft) 100 %
30.11.2017 18:50 0,1 C 0,1 C 0,1 C 91 % 1005,7 hPa 0,0 l/m 6,9 km/h (2 Bft) S-SW 194 0 min 0,000 mm 0 W/m -1,2 C -0,4 C 17,7 km/h (3 Bft) 100 %
30.11.2017 19:00 0,1 C 0,1 C 0,1 C 91 % 1005,7 hPa 0,0 l/m 6,1 km/h (2 Bft) S-SW 196 0 min 0,000 mm 0 W/m -1,2 C 0,1 C 17,7 km/h (3 Bft) 100 %
30.11.2017 19:10 0,0 C 0,0 C 0,1 C 91 % 1005,8 hPa 0,0 l/m 5,9 km/h (2 Bft) S 191 0 min 0,000 mm 0 W/m -1,3 C 0,0 C 16,1 km/h (3 Bft) 100 %
30.11.2017 19:20 0,0 C 0,0 C 0,0 C 91 % 1005,9 hPa 0,0 l/m 5,6 km/h (1 Bft) S-SW 196 0 min 0,000 mm 0 W/m -1,3 C 0,0 C 11,3 km/h (2 Bft) 100 %
30.11.2017 19:30 0,0 C -0,1 C 0,0 C 91 % 1005,9 hPa 0,0 l/m 5,6 km/h (1 Bft) S-SW 202 0 min 0,000 mm 0 W/m -1,3 C 0,0 C 9,7 km/h (2 Bft) 100 %
30.11.2017 19:40 0,0 C 0,0 C 0,0 C 91 % 1006,0 hPa 0,0 l/m 5,8 km/h (2 Bft) S-SW 205 0 min 0,000 mm 0 W/m -1,3 C 0,0 C 11,3 km/h (2 Bft) 100 %
30.11.2017 19:50 0,1 C 0,0 C 0,1 C 91 % 1006,0 hPa 0,0 l/m 3,4 km/h (1 Bft) S-SW 201 0 min 0,000 mm 0 W/m -1,2 C 0,1 C 6,4 km/h (2 Bft) 99 %
30.11.2017 20:00 0,2 C 0,1 C 0,2 C 91 % 1006,0 hPa 0,0 l/m 4,6 km/h (1 Bft) S-SW 213 0 min 0,000 mm 0 W/m -1,1 C 0,2 C 11,3 km/h (2 Bft) 100 %
30.11.2017 20:10 0,2 C 0,2 C 0,2 C 91 % 1005,9 hPa 0,0 l/m 3,7 km/h (1 Bft) S-SW 207 0 min 0,000 mm 0 W/m -1,1 C 0,2 C 9,7 km/h (2 Bft) 100 %
30.11.2017 20:20 0,3 C 0,2 C 0,3 C 92 % 1006,0 hPa 0,0 l/m 4,4 km/h (1 Bft) SW 223 0 min 0,000 mm 0 W/m -0,8 C 0,3 C 8,0 km/h (2 Bft) 100 %
30.11.2017 20:30 0,3 C 0,3 C 0,3 C 92 % 1006,2 hPa 0,0 l/m 4,5 km/h (1 Bft) S-SW 211 0 min 0,000 mm 0 W/m -0,8 C 0,3 C 14,5 km/h (3 Bft) 100 %
30.11.2017 20:40 0,3 C 0,3 C 0,3 C 92 % 1006,4 hPa 0,0 l/m 5,0 km/h (1 Bft) S-SW 209 0 min 0,000 mm 0 W/m -0,8 C 0,3 C 11,3 km/h (2 Bft) 100 %
30.11.2017 20:50 0,3 C 0,3 C 0,3 C 92 % 1006,3 hPa 0,0 l/m 4,5 km/h (1 Bft) S-SW 213 0 min 0,000 mm 0 W/m -0,8 C 0,3 C 11,3 km/h (2 Bft) 100 %
30.11.2017 21:00 0,3 C 0,3 C 0,3 C 92 % 1006,4 hPa 0,0 l/m 3,1 km/h (1 Bft) S-SW 198 0 min 0,000 mm 0 W/m -0,8 C 0,3 C 9,7 km/h (2 Bft) 100 %
30.11.2017 21:10 0,3 C 0,3 C 0,3 C 92 % 1006,5 hPa 0,0 l/m 3,2 km/h (1 Bft) S-SW 202 0 min 0,000 mm 0 W/m -0,8 C 0,3 C 8,0 km/h (2 Bft) 88 %
30.11.2017 21:20 0,3 C 0,3 C 0,3 C 92 % 1006,7 hPa 0,0 l/m 3,2 km/h (1 Bft) SW 225 0 min 0,000 mm 0 W/m -0,8 C 0,3 C 11,3 km/h (2 Bft) 97 %
30.11.2017 21:30 0,3 C 0,3 C 0,3 C 92 % 1006,7 hPa 0,2 l/m 1,6 km/h (1 Bft) S-SW 202 0 min 0,000 mm 0 W/m -0,8 C 0,3 C 8,0 km/h (2 Bft) 97 %
30.11.2017 21:40 0,3 C 0,3 C 0,3 C 91 % 1006,7 hPa 0,0 l/m 1,6 km/h (1 Bft) SW 225 0 min 0,000 mm 0 W/m -1,0 C 0,3 C 9,7 km/h (2 Bft) 97 %
30.11.2017 21:50 0,2 C 0,2 C 0,3 C 91 % 1006,8 hPa 0,0 l/m 4,8 km/h (1 Bft) S-SW 202 0 min 0,000 mm 0 W/m -1,1 C 0,2 C 14,5 km/h (3 Bft) 98 %
30.11.2017 22:00 0,2 C 0,2 C 0,2 C 91 % 1006,8 hPa 0,0 l/m 3,2 km/h (1 Bft) W-SW 247 0 min 0,000 mm 0 W/m -1,1 C 0,2 C 11,3 km/h (2 Bft) 97 %
30.11.2017 22:10 0,2 C 0,2 C 0,2 C 91 % 1006,8 hPa 0,0 l/m 3,2 km/h (1 Bft) SW 225 0 min 0,000 mm 0 W/m -1,1 C 0,2 C 9,7 km/h (2 Bft) 96 %
30.11.2017 22:20 0,1 C 0,1 C 0,2 C 91 % 1007,0 hPa 0,0 l/m 3,2 km/h (1 Bft) SW 225 0 min 0,000 mm 0 W/m -1,2 C 0,1 C 9,7 km/h (2 Bft) 98 %
30.11.2017 22:30 0,1 C 0,1 C 0,1 C 91 % 1007,0 hPa 0,0 l/m 4,8 km/h (1 Bft) W-SW 247 0 min 0,000 mm 0 W/m -1,2 C 0,1 C 12,9 km/h (3 Bft) 98 %
30.11.2017 22:40 0,0 C 0,0 C 0,1 C 91 % 1007,0 hPa 0,0 l/m 1,6 km/h (1 Bft) SW 225 0 min 0,000 mm 0 W/m -1,3 C 0,0 C 8,0 km/h (2 Bft) 89 %
30.11.2017 22:50 -0,1 C -0,1 C 0,0 C 91 % 1007,0 hPa 0,0 l/m 3,2 km/h (1 Bft) SW 225 0 min 0,000 mm 0 W/m -1,4 C -0,1 C 8,0 km/h (2 Bft) 97 %
30.11.2017 23:00 -0,2 C -0,2 C -0,1 C 91 % 1007,1 hPa 0,0 l/m 0,0 km/h (0 Bft) SW 225 0 min 0,000 mm 0 W/m -1,5 C -0,2 C 4,8 km/h (1 Bft) 98 %
30.11.2017 23:10 -0,4 C -0,4 C -0,2 C 91 % 1007,0 hPa 0,0 l/m 0,0 km/h (0 Bft) N 0 0 min 0,000 mm 0 W/m -1,7 C -0,4 C 0,0 km/h (0 Bft) 97 %
30.11.2017 23:20 -0,5 C -0,5 C -0,4 C 91 % 1007,0 hPa 0,0 l/m 0,0 km/h (0 Bft) N 0 0 min 0,000 mm 0 W/m -1,8 C -0,5 C 0,0 km/h (0 Bft) 98 %
30.11.2017 23:30 -0,6 C -0,6 C -0,5 C 91 % 1007,2 hPa 0,0 l/m 1,6 km/h (1 Bft) S-SW 202 0 min 0,000 mm 0 W/m -1,9 C -0,6 C 8,0 km/h (2 Bft) 98 %
30.11.2017 23:40 -0,7 C -0,7 C -0,6 C 91 % 1007,4 hPa 0,0 l/m 3,2 km/h (1 Bft) S-SW 202 0 min 0,000 mm 0 W/m -2,0 C -0,7 C 6,4 km/h (2 Bft) 98 %
30.11.2017 23:50 -0,8 C -0,8 C -0,7 C 91 % 1007,4 hPa 0,0 l/m 3,2 km/h (1 Bft) S-SW 202 0 min 0,000 mm 0 W/m -2,1 C -0,8 C 8,0 km/h (2 Bft) 98 %
_ Min-Zeit 00:00 00:00 00:00 00:00 05:40 - 00:00 - - - - - 00:00 00:00 04:20 16:50
Minimum _ -1,0 C -1,3 C -1,0 C 91 % 1004,3 hPa - 0,0 km/h (0 Bft) - - - - - -2,3 C -1,0 C 0,0 km/h (0 Bft) 87 %
_ Max-Zeit 14:00 13:50 14:00 20:20 23:40 04:30 18:50 - - 00:00 12:00 13:10 17:10 17:10 18:50 00:00
Maximum _ 1,0 C 0,9 C 1,0 C 92 % 1007,4 hPa 0,2 l/m 6,9 km/h
S-SW (2 Bft)
- - 0 min 0,025 mm 97 W/m -0,3 C 1,0 C 17,7 km/h
SW (3 Bft)
100 %
Durchschnitt _ 0,0 C 0,0 C 0,1 C 91 % 1005,4 hPa #2,3 l/m 2,0 km/h (1 Bft) S-SW - #0 min. #0,076 mm 36 W/m -1,2 C 0,0 C 5,8 km/h (2 Bft) 99 %
PRIVATE WETTERSTATION BILLIGHEIM-ALLFELD - www.neckar-odenwald-wetter.de - Holger Sonntag